TimeMDT,TemperatureF,Dew PointF,Humidity,Sea Level PressureIn,VisibilityMPH,Wind Direction,Wind SpeedMPH,Gust SpeedMPH,PrecipitationIn,Events,Conditions,WindDirDegrees,DateUTC
12:15 AM,50.0,46.4,87,29.50,9.0,NNW,20.7,25.3,N/A,,Overcast,330,2013-05-31 06:15:00
12:55 AM,48.2,46.4,93,29.50,10.0,NNW,19.6,25.3,N/A,,Overcast,330,2013-05-31 06:55:00
1:15 AM,48.2,46.4,93,29.50,10.0,NNW,18.4,26.5,N/A,,Overcast,330,2013-05-31 07:15:00
1:35 AM,48.2,46.4,93,29.50,10.0,NNW,18.4,24.2,N/A,,Overcast,330,2013-05-31 07:35:00
1:55 AM,48.2,46.4,93,29.50,6.0,NNW,18.4,25.3,N/A,,Overcast,330,2013-05-31 07:55:00
2:15 AM,50.0,46.4,87,29.50,7.0,NW,17.3,-,N/A,,Overcast,320,2013-05-31 08:15:00
2:35 AM,50.0,46.4,87,29.50,10.0,NNW,16.1,20.7,N/A,,Overcast,330,2013-05-31 08:35:00
2:55 AM,50.0,46.4,87,29.50,5.0,NW,17.3,20.7,0.06,,Overcast,320,2013-05-31 08:55:00
3:15 AM,50.0,48.2,94,29.50,8.0,NNW,16.1,20.7,0.05,,Overcast,330,2013-05-31 09:15:00
3:35 AM,50.0,48.2,94,29.49,10.0,NNW,17.3,21.9,0.13,,Overcast,330,2013-05-31 09:35:00
3:55 AM,50.0,48.2,94,29.50,10.0,NNW,17.3,23.0,0.18,,Overcast,330,2013-05-31 09:55:00
4:15 AM,50.0,48.2,94,29.50,10.0,NNW,16.1,21.9,0.03,,Overcast,330,2013-05-31 10:15:00
4:16 AM,50.0,48.2,94,29.50,10.0,NNW,16.1,-,0.03,,Overcast,330,2013-05-31 10:16:00
4:35 AM,51.8,48.2,88,29.50,10.0,NNW,17.3,-,0.04,,Overcast,330,2013-05-31 10:35:00
4:55 AM,51.8,48.2,88,29.50,10.0,NNW,15.0,-,N/A,,Overcast,330,2013-05-31 10:55:00
5:15 AM,51.8,48.2,88,29.51,10.0,NNW,15.0,-,N/A,,Overcast,330,2013-05-31 11:15:00
5:35 AM,51.8,48.2,88,29.52,8.0,NNW,15.0,-,N/A,,Overcast,340,2013-05-31 11:35:00
5:55 AM,51.8,48.2,88,29.53,9.0,NNW,16.1,-,N/A,,Overcast,340,2013-05-31 11:55:00
6:15 AM,51.8,48.2,88,29.53,10.0,NNW,18.4,-,N/A,,Overcast,340,2013-05-31 12:15:00
6:36 AM,51.8,48.2,88,29.54,10.0,North,18.4,23.0,N/A,,Overcast,350,2013-05-31 12:36:00
7:15 AM,51.8,48.2,88,29.56,8.0,NNW,17.3,-,N/A,,Overcast,340,2013-05-31 13:15:00
7:35 AM,51.8,48.2,88,29.56,9.0,North,16.1,-,N/A,,Overcast,350,2013-05-31 13:35:00
7:55 AM,51.8,48.2,88,29.57,10.0,North,17.3,-,N/A,,Overcast,350,2013-05-31 13:55:00
8:55 AM,50.0,46.4,87,29.60,10.0,North,18.4,-,0.09,,Overcast,350,2013-05-31 14:55:00
9:15 AM,50.0,46.4,87,29.60,10.0,North,19.6,24.2,0.05,,Mostly Cloudy,350,2013-05-31 15:15:00
9:35 AM,50.0,46.4,87,29.61,10.0,North,17.3,23.0,0.08,,Overcast,360,2013-05-31 15:35:00
9:55 AM,50.0,48.2,94,29.62,7.0,NNW,19.6,23.0,0.11,,Overcast,340,2013-05-31 15:55:00
10:15 AM,50.0,46.4,87,29.63,10.0,North,21.9,28.8,0.02,,Overcast,360,2013-05-31 16:15:00
10:55 AM,50.0,46.4,87,29.65,6.0,North,20.7,-,0.06,,Overcast,350,2013-05-31 16:55:00
11:15 AM,50.0,46.4,87,29.66,10.0,North,23.0,28.8,0.01,,Overcast,350,2013-05-31 17:15:00
11:35 AM,50.0,46.4,87,29.67,10.0,North,21.9,28.8,0.02,,Overcast,350,2013-05-31 17:35:00
11:55 AM,50.0,46.4,87,29.68,10.0,North,18.4,24.2,0.03,,Overcast,350,2013-05-31 17:55:00
12:15 PM,50.0,46.4,87,29.69,7.0,North,24.2,28.8,0.01,,Overcast,360,2013-05-31 18:15:00
12:35 PM,50.0,46.4,87,29.70,8.0,North,17.3,23.0,0.01,,Overcast,360,2013-05-31 18:35:00
12:55 PM,50.0,46.4,87,29.71,8.0,North,19.6,-,0.02,,Overcast,10,2013-05-31 18:55:00
1:15 PM,50.0,46.4,87,29.72,3.0,North,18.4,24.2,0.02,,Overcast,360,2013-05-31 19:15:00
1:35 PM,51.8,46.4,82,29.73,7.0,North,21.9,27.6,0.02,,Overcast,360,2013-05-31 19:35:00
1:55 PM,50.0,46.4,87,29.73,5.0,North,20.7,27.6,0.03,,Overcast,360,2013-05-31 19:55:00
2:15 PM,51.8,46.4,82,29.74,8.0,North,20.7,-,N/A,,Overcast,350,2013-05-31 20:15:00
2:35 PM,51.8,46.4,82,29.75,10.0,North,21.9,32.2,N/A,,Overcast,360,2013-05-31 20:35:00
2:55 PM,51.8,46.4,82,29.76,10.0,North,21.9,31.1,0.01,,Overcast,10,2013-05-31 20:55:00
3:15 PM,51.8,46.4,82,29.78,5.0,North,19.6,28.8,N/A,,Mostly Cloudy,10,2013-05-31 21:15:00
3:35 PM,51.8,46.4,82,29.79,10.0,NNE,20.7,31.1,0.01,,Mostly Cloudy,20,2013-05-31 21:35:00
3:55 PM,51.8,46.4,82,29.80,9.0,NNE,16.1,28.8,0.02,,Overcast,20,2013-05-31 21:55:00
4:15 PM,50.0,46.4,87,29.81,7.0,NNE,20.7,27.6,N/A,,Mostly Cloudy,20,2013-05-31 22:15:00
4:35 PM,51.8,46.4,82,29.82,4.0,NNE,18.4,25.3,0.02,,Overcast,20,2013-05-31 22:35:00
4:55 PM,51.8,46.4,82,29.84,10.0,North,19.6,26.5,0.02,,Mostly Cloudy,10,2013-05-31 22:55:00
5:15 PM,50.0,46.4,87,29.85,10.0,North,17.3,-,N/A,,Overcast,10,2013-05-31 23:15:00
5:55 PM,50.0,46.4,87,29.88,3.0,North,16.1,19.6,0.03,,Overcast,10,2013-05-31 23:55:00
6:15 PM,50.0,46.4,87,29.89,9.0,NNE,20.7,-,N/A,,Mostly Cloudy,20,2013-06-01 00:15:00
6:35 PM,50.0,46.4,87,29.90,10.0,North,18.4,25.3,N/A,,Overcast,10,2013-06-01 00:35:00
6:55 PM,50.0,46.4,87,29.92,10.0,North,13.8,17.3,N/A,,Overcast,10,2013-06-01 00:55:00
7:15 PM,51.8,46.4,82,29.93,10.0,North,11.5,-,N/A,,Overcast,360,2013-06-01 01:15:00
7:35 PM,51.8,46.4,82,29.94,10.0,North,11.5,-,N/A,,Overcast,350,2013-06-01 01:35:00
7:55 PM,51.8,46.4,82,29.95,10.0,North,10.4,-,N/A,,Overcast,350,2013-06-01 01:55:00
8:15 PM,51.8,48.2,88,29.96,10.0,NNW,8.1,-,N/A,,Overcast,330,2013-06-01 02:15:00
8:35 PM,51.8,46.4,82,29.97,10.0,NNW,9.2,-,N/A,,Overcast,330,2013-06-01 02:35:00
8:55 PM,51.8,46.4,82,29.98,10.0,NNW,9.2,-,N/A,,Overcast,330,2013-06-01 02:55:00
9:35 PM,51.8,46.4,82,30.00,10.0,NNW,9.2,-,N/A,,Overcast,340,2013-06-01 03:35:00
9:55 PM,51.8,46.4,82,30.01,10.0,North,12.7,-,N/A,,Overcast,350,2013-06-01 03:55:00
10:15 PM,51.8,44.6,76,30.02,10.0,North,13.8,-,N/A,,Mostly Cloudy,10,2013-06-01 04:15:00
10:35 PM,50.0,44.6,82,30.04,10.0,NW,6.9,-,N/A,,Partly Cloudy,320,2013-06-01 04:35:00
10:55 PM,48.2,42.8,82,30.04,10.0,NNW,5.8,-,N/A,,Partly Cloudy,330,2013-06-01 04:55:00
11:35 PM,48.2,44.6,87,30.05,10.0,NW,9.2,-,N/A,,Overcast,310,2013-06-01 05:35:00
11:55 PM,48.2,44.6,87,30.06,10.0,NW,11.5,-,N/A,,Overcast,320,2013-06-01 05:55:00